User: anonymous   Login
Location: Fort Wayne
(41.1310°N, 85.1290°W)
Time: 20:23:24
(UTC-05:00)
Language:

SR - Orbit

View from above orbital plane
View from above orbital plane
View from above satellite
View from above satellite

Ground track
Ground track

The orbit data is extracted from the following two-line orbital elements,

1 00046U 60007B   16037.46205079  .00000322  00000-0  86020-4 0  9990
2 00046  66.6907  29.5332 0217753 239.4325 118.5140 14.48796646908296
Epoch (UTC): 06 February 2016 11:05:21
Eccentricity: 0.0217753
inclination: 66.6907°
perigee height: 575 km
apogee height: 884 km
right ascension of ascending node: 29.5332°
argument of perigee: 239.4325°
revolutions per day: 14.48796646
mean anomaly at epoch: 118.5140°
orbit number at epoch: 90829

The dashed part of the orbit path shows where the satellite is in the earth's shadow,  

DLR